[[{"header":{"parameterUnit":"m.s-1","parameterCategory":1,"la1":30.2992,"la2":30.254,"lo1":-89.0895,"lo2":-89.0443,"dy":0.0025,"dx":0.0025,"nx":19,"ny":19,"refTime":"2026-03-16T21:00:00:Z","depth":0,"parameterNumber":2,"parameterNumberName":"U-component_of_WINDS"},"data":[0,0,0,4.6525,4.6526,4.6594,4.6594,4.6689,4.669,0,0,0,0,0,0,0,0,0,0,0,4.651,4.6511,4.6525,4.6526,4.6594,4.6594,4.6689,4.669,0,0,0,0,0,0,0,0,0,0,0,4.651,4.6511,4.6512,4.6527,4.6593,4.6594,4.6688,4.6634,0,0,0,0,0,0,0,0,0,0,4.6568,4.6559,4.6511,4.6512,4.6527,4.6593,4.6594,4.6632,4.6638,4.6662,0,4.6686,0,4.669,4.6697,4.6697,0,0,0,4.6522,4.6554,4.6568,4.6512,4.6528,4.6593,4.6562,4.6635,4.6642,4.6671,4.6687,4.669,4.6691,4.6697,4.6698,4.6857,4.6858,0,0,4.6518,4.6525,4.6563,4.6573,4.6563,4.656,4.6564,4.6639,4.6657,4.6687,4.6692,4.6693,4.6698,4.6699,4.6856,4.6858,0,0,0,4.6511,4.6523,4.6534,4.6569,4.6581,4.6562,4.6567,4.6654,4.6657,4.6693,4.6694,4.6699,4.67,4.6855,4.6857,4.6911,0,0,0,4.6508,4.6518,4.6533,4.6537,4.6579,4.6618,4.658,4.6652,4.666,4.6693,4.6699,4.6701,4.6854,4.6856,4.6907,4.6935,0,0,0,4.6504,4.6517,4.6529,4.6537,4.6567,4.6617,4.6624,4.6653,4.6661,4.6697,4.6701,4.6854,4.6856,4.6904,4.693,4.698,0,0,0,4.6501,4.6575,4.653,4.6613,4.6566,4.665,4.6623,4.6685,4.6723,4.6699,4.6854,4.6857,4.6903,4.6926,4.6977,4.7024,4.7044,0,0,4.6597,4.6586,4.6635,4.6597,4.6691,4.6639,4.6741,4.6768,4.6765,4.6827,4.6831,4.6909,4.6929,4.6979,4.7156,4.7172,0,0,0,4.6668,4.6703,4.6726,4.6763,4.6788,4.6811,4.6823,4.6834,4.6886,4.6798,4.694,4.6952,4.6982,4.7004,4.7017,4.7042,4.6867,4.6867,4.6867,4.6812,4.6807,4.6887,4.689,4.6927,4.6941,4.697,4.6987,4.6968,4.7002,4.702,4.7128,4.7154,4.7164,4.7191,4.7045,4.7045,4.7045,4.7045,4.6953,4.7002,4.698,4.7049,4.7043,4.7102,4.7119,4.7104,4.7158,4.7113,4.7138,4.7089,4.7182,4.7205,4.7049,4.7048,4.7048,4.7048,4.7047,4.7047,4.7069,4.7083,4.7139,4.7183,4.7184,4.7239,4.723,4.7223,4.7248,4.7267,4.7266,4.7265,4.7258,4.7259,4.7259,4.7259,4.726,4.726,4.7138,4.7152,4.7199,4.7234,4.7259,4.7291,4.7308,4.7332,4.7357,4.7347,4.7347,4.7326,4.7193,4.716,4.7266,4.7265,4.7264,4.7263,4.7263,4.7282,4.725,4.7322,4.7347,4.739,4.7435,4.7426,4.7477,4.7496,4.7523,4.7498,4.7401,4.7388,4.7377,4.735,4.7498,4.7498,4.7498,4.7498,4.7361,4.7355,4.7429,4.7471,4.751,4.7511,4.7594,4.761,4.762,4.7632,4.7609,4.7572,4.7562,4.7555,4.7541,4.7515,4.7702,4.7702,4.7702,4.745,4.7448,4.752,4.7532,4.7566,4.7595,4.7674,4.7723,4.7727,4.7711,4.7641,4.7632,4.7573,4.7553,4.7533,4.751,4.7462,0,0]},{"header":{"parameterUnit":"m.s-1","parameterCategory":1,"la1":30.2992,"la2":30.254,"lo1":-89.0895,"lo2":-89.0443,"dy":0.0025,"dx":0.0025,"nx":19,"ny":19,"refTime":"2026-03-16T21:00:00:Z","depth":0,"parameterNumber":3,"parameterNumberName":"V-component_of_WINDS"},"data":[0,0,0,-9.113,-9.1134,-9.1329,-9.133,-9.1582,-9.1584,0,0,0,0,0,0,0,0,0,0,0,-9.1076,-9.1078,-9.113,-9.1135,-9.1329,-9.133,-9.1581,-9.1584,0,0,0,0,0,0,0,0,0,0,0,-9.1076,-9.1078,-9.108,-9.1136,-9.1329,-9.133,-9.1581,-9.1432,0,0,0,0,0,0,0,0,0,0,-9.1242,-9.1197,-9.1077,-9.108,-9.1137,-9.1329,-9.133,-9.1425,-9.1442,-9.1496,0,-9.1547,0,-9.157,-9.1601,-9.1602,0,0,0,-9.1131,-9.1184,-9.1233,-9.1081,-9.1139,-9.1329,-9.124,-9.1434,-9.1453,-9.1517,-9.155,-9.156,-9.1574,-9.1603,-9.1604,-9.1937,-9.1938,0,0,-9.112,-9.1113,-9.122,-9.1245,-9.1219,-9.1234,-9.1247,-9.1445,-9.148,-9.1551,-9.1565,-9.1578,-9.1605,-9.1607,-9.1935,-9.1937,0,0,0,-9.1092,-9.1105,-9.115,-9.1235,-9.127,-9.124,-9.1254,-9.1471,-9.1486,-9.1568,-9.1581,-9.1606,-9.1609,-9.1933,-9.1936,-9.2016,0,0,0,-9.1085,-9.1089,-9.1145,-9.1143,-9.1267,-9.1374,-9.1275,-9.1472,-9.1495,-9.158,-9.1606,-9.1612,-9.1931,-9.1934,-9.201,-9.2054,0,0,0,-9.1062,-9.1086,-9.1116,-9.1142,-9.1226,-9.137,-9.1397,-9.1477,-9.1503,-9.1603,-9.1613,-9.193,-9.1934,-9.2004,-9.2045,-9.2141,0,0,0,-9.1035,-9.1182,-9.1117,-9.1287,-9.1224,-9.142,-9.1396,-9.1541,-9.1636,-9.1608,-9.1931,-9.1935,-9.2002,-9.204,-9.2135,-9.222,-9.2255,0,0,-9.1216,-9.1203,-9.1304,-9.1252,-9.1458,-9.1391,-9.1608,-9.1699,-9.1713,-9.1861,-9.1869,-9.2012,-9.2045,-9.214,-9.2454,-9.2482,0,0,0,-9.1359,-9.1431,-9.1488,-9.158,-9.1656,-9.1725,-9.1785,-9.1819,-9.1946,-9.1789,-9.2072,-9.2092,-9.2148,-9.2189,-9.2213,-9.2262,-9.1954,-9.1954,-9.1953,-9.1603,-9.1618,-9.1786,-9.1825,-9.1914,-9.1977,-9.205,-9.2106,-9.2091,-9.2158,-9.2202,-9.2391,-9.2439,-9.2457,-9.2508,-9.2248,-9.2248,-9.2249,-9.2249,-9.1871,-9.1976,-9.1957,-9.2114,-9.2127,-9.2257,-9.2324,-9.231,-9.2432,-9.2359,-9.2409,-9.2328,-9.2487,-9.2532,-9.2255,-9.2254,-9.2253,-9.2252,-9.2252,-9.2033,-9.2086,-9.2128,-9.2265,-9.2368,-9.2401,-9.2521,-9.2528,-9.2535,-9.2584,-9.2632,-9.2631,-9.263,-9.2607,-9.2608,-9.2608,-9.2609,-9.2609,-9.261,-9.2183,-9.2229,-9.233,-9.2427,-9.2489,-9.257,-9.2637,-9.2696,-9.2764,-9.276,-9.276,-9.2739,-9.2501,-9.2441,-9.262,-9.2618,-9.2617,-9.2616,-9.2615,-9.2448,-9.2391,-9.2548,-9.261,-9.2725,-9.2828,-9.2837,-9.2959,-9.3009,-9.3068,-9.3038,-9.2861,-9.2847,-9.2828,-9.2779,-9.3034,-9.3034,-9.3034,-9.3034,-9.2585,-9.258,-9.2744,-9.2843,-9.2941,-9.2967,-9.3143,-9.3197,-9.3242,-9.3274,-9.3238,-9.3173,-9.3154,-9.3152,-9.3126,-9.308,-9.3406,-9.3407,-9.3407,-9.2749,-9.2755,-9.2904,-9.2952,-9.3043,-9.3121,-9.3287,-9.34,-9.344,-9.3422,-9.33,-9.3284,-9.3179,-9.3144,-9.3122,-9.3082,-9.2997,0,0]}]]